[[{"header":{"parameterUnit":"m.s-1","parameterCategory":1,"la1":30.2991,"la2":30.254,"lo1":-89.0895,"lo2":-89.0444,"dy":0.0017,"dx":0.0017,"nx":28,"ny":28,"refTime":"2024-06-11T03:00:00:Z","depth":0,"parameterNumber":2,"parameterNumberName":"U-component_of_WINDS"},"data":[0,0,0,0,0,0,0,0,0,0,0,0,0,0,0,0,0,0,0,0,0,0,0,0,0,0,0,0,0,0,0,0,0,0,0,0,0,0,0,0,0,0,0,0,0,0,0,0,0,0,0,0,0,0,0,0,0,0,-1.6535,-1.6536,0,-1.6602,-1.6602,-1.6603,-1.6542,-1.654,-1.6537,-1.6535,-1.6607,-1.6612,-1.6616,0,0,0,0,0,0,0,0,0,0,0,0,0,-1.6359,-1.6362,-1.6535,-1.6536,-1.6537,-1.6601,-1.6602,-1.6603,-1.6543,-1.654,-1.6537,-1.6534,-1.6606,-1.6611,-1.6616,0,0,0,0,0,0,0,0,0,0,0,0,0,-1.6431,-1.6363,-1.6535,-1.6514,-1.6513,-1.6601,-1.6602,-1.6604,-1.6543,-1.654,-1.6536,-1.6532,-1.6604,-1.6611,-1.6617,-1.673,0,0,-1.6636,-1.6639,0,0,0,0,0,0,0,0,-1.6427,-1.6438,-1.6516,-1.6516,-1.6514,-1.656,-1.6567,-1.6646,-1.6544,-1.6532,-1.6535,-1.6531,-1.6595,-1.6602,-1.6623,-1.6734,-1.6737,-1.6637,-1.6641,-1.6643,-1.6645,0,0,0,0,0,0,0,-1.6422,-1.6435,-1.6561,-1.6518,-1.6516,-1.6503,-1.6509,-1.6582,-1.6584,-1.6533,-1.6528,-1.6537,-1.6594,-1.6617,-1.6624,-1.6738,-1.6637,-1.6642,-1.6646,-1.6649,-1.6947,-1.6951,0,0,0,0,0,0,-1.6419,-1.6431,-1.6559,-1.6563,-1.6461,-1.6509,-1.6516,-1.6549,-1.6583,-1.6584,-1.654,-1.6534,-1.6608,-1.6616,-1.6626,-1.6763,-1.6643,-1.6649,-1.6653,-1.6943,-1.6948,-1.6952,0,0,0,0,0,0,-1.6415,-1.6431,-1.6557,-1.6496,-1.6511,-1.6516,-1.6554,-1.6552,-1.6575,-1.6588,-1.6588,-1.6563,-1.6605,-1.6617,-1.6705,-1.6764,-1.6652,-1.6658,-1.6938,-1.6944,-1.695,-1.7036,0,0,0,0,0,0,-1.6411,-1.643,-1.6473,-1.6497,-1.6514,-1.6634,-1.6557,-1.6556,-1.6586,-1.6578,-1.661,-1.6611,-1.6603,-1.6696,-1.6711,-1.6771,-1.6663,-1.6933,-1.6941,-1.6948,-1.7028,-1.7044,-1.7058,0,0,0,0,0,-1.6405,-1.6495,-1.6475,-1.6491,-1.6568,-1.6637,-1.6647,-1.6634,-1.6591,-1.6634,-1.6642,-1.661,-1.6754,-1.6705,-1.6722,-1.6785,-1.6929,-1.6938,-1.6947,-1.7021,-1.7041,-1.7058,0,0,0,0,0,0,-1.6479,-1.6498,-1.6476,-1.6577,-1.6606,-1.6627,-1.6681,-1.6656,-1.6699,-1.669,-1.6674,-1.6681,-1.6774,-1.6788,-1.6732,-1.6897,-1.6835,-1.6848,-1.6885,-1.6904,-1.6919,-1.6915,-1.6668,0,0,0,0,0,-1.6506,-1.656,-1.6574,-1.6662,-1.6677,-1.6677,-1.6707,-1.6694,-1.6724,-1.6736,-1.6751,-1.6782,-1.6834,-1.687,-1.6918,-1.7028,-1.7035,-1.708,-1.7095,-1.7107,-1.712,-1.718,-1.7201,-1.6983,-1.6982,-1.6982,0,0,-1.6565,-1.6582,-1.6618,-1.6677,-1.6698,-1.6756,-1.6688,-1.6751,-1.6794,-1.6746,-1.683,-1.6842,-1.6876,-1.6975,-1.702,-1.699,-1.7181,-1.7119,-1.7129,-1.7135,-1.7192,-1.7213,-1.7231,-1.6989,-1.6988,-1.6987,0,0,-1.6702,-1.6719,-1.6795,-1.6816,-1.6848,-1.6847,-1.6865,-1.689,-1.6895,-1.6979,-1.6944,-1.6995,-1.7086,-1.7111,-1.7136,-1.7282,-1.7255,-1.7298,-1.7378,-1.7438,-1.7455,-1.747,-1.7524,-1.7543,-1.7309,-1.731,-1.731,0,-1.6772,-1.6855,-1.6837,-1.6903,-1.6931,-1.6888,-1.6965,-1.6988,-1.7035,-1.7056,-1.702,-1.7132,-1.7152,-1.7258,-1.7293,-1.7314,-1.7336,-1.7296,-1.7454,-1.7469,-1.7483,-1.7534,-1.7554,-1.7315,-1.7314,-1.7314,-1.7313,0,-1.694,-1.6999,-1.7056,-1.7101,-1.7135,-1.7206,-1.72,-1.7237,-1.7221,-1.7224,-1.731,-1.7331,-1.7384,-1.7408,-1.7394,-1.7512,-1.7492,-1.7455,-1.7394,-1.7509,-1.7557,-1.7576,-1.7322,-1.7321,-1.7319,-1.7318,0,0,-1.7128,-1.716,-1.7182,-1.7202,-1.7233,-1.7279,-1.7348,-1.7399,-1.7432,-1.7465,-1.7524,-1.76,-1.7566,-1.7595,-1.7583,-1.7634,-1.775,-1.7591,-1.7592,-1.7622,-1.7885,-1.7914,-1.7937,-1.7731,-1.7735,-1.7738,-1.7883,0,-1.7267,-1.7387,-1.7372,-1.7487,-1.7542,-1.7502,-1.7562,-1.7589,-1.7593,-1.7641,-1.7646,-1.7702,-1.7651,-1.7668,-1.7717,-1.7726,-1.7803,-1.7715,-1.7789,-1.7792,-1.7784,-1.7962,-1.7993,-1.8129,-1.7901,-1.7904,-1.7906,0,-1.7447,-1.7485,-1.7605,-1.7628,-1.7651,-1.7705,-1.775,-1.7796,-1.7826,-1.7825,-1.7856,-1.7835,-1.7906,-1.784,-1.7939,-1.7879,-1.7908,-1.7917,-1.7922,-1.7931,-1.7858,-1.7978,-1.8172,-1.8194,-1.7935,-1.7933,-1.7931,0,-1.7574,-1.7656,-1.7739,-1.7757,-1.7785,-1.7825,-1.7838,-1.7864,-1.7895,-1.7934,-1.7955,-1.8003,-1.803,-1.8068,-1.806,-1.8013,-1.8162,-1.8095,-1.8166,-1.8166,-1.8202,-1.82,-1.8406,-1.8216,-1.8215,-1.8215,-1.8215,0,-1.7733,-1.7809,-1.7796,-1.7848,-1.7932,-1.7914,-1.7998,-1.8007,-1.803,-1.8083,-1.805,-1.8102,-1.8087,-1.8138,-1.8133,-1.8217,-1.8229,-1.8232,-1.823,-1.8237,-1.8237,-1.8257,-1.8249,-1.822,-1.8219,-1.8218,-1.8217,0,-1.7891,-1.7885,-1.7973,-1.7992,-1.7999,-1.806,-1.8077,-1.8126,-1.8126,-1.8194,-1.8209,-1.8212,-1.827,-1.8265,-1.8331,-1.8327,-1.8432,-1.8418,-1.8422,-1.842,-1.8492,-1.8486,-1.872,-1.8751,-1.8539,-1.8541,-1.8542,0,-1.7994,-1.8052,-1.8076,-1.8109,-1.8125,-1.8178,-1.8209,-1.8193,-1.8227,-1.8265,-1.831,-1.8365,-1.8408,-1.8503,-1.8512,-1.8562,-1.8551,-1.8629,-1.8558,-1.8563,-1.8555,-1.8553,-1.8559,-1.8644,-1.8647,-1.8648,-1.865,0,-1.8179,-1.8173,-1.8218,-1.8263,-1.8301,-1.8336,-1.8368,-1.8396,-1.8384,-1.8424,-1.8482,-1.8516,-1.8582,-1.8638,-1.8686,-1.8702,-1.8676,-1.8672,-1.8691,-1.87,-1.8701,-1.8704,-1.8463,-1.8667,-1.8666,-1.8664,-1.8663,-1.8663,-1.8314,-1.8363,-1.8388,-1.844,-1.8462,-1.8492,-1.8539,-1.8545,-1.8593,-1.8645,-1.8633,-1.8699,-1.8727,-1.8789,-1.8809,-1.8862,-1.8834,-1.8861,-1.8869,-1.8877,-1.8886,-1.869,-1.887,-1.8869,-1.8869,-1.8869,-1.8868,0,-1.8499,-1.8512,-1.856,-1.8605,-1.8646,-1.8614,-1.8647,-1.8685,-1.8743,-1.8771,-1.8813,-1.8881,-1.8935,-1.8947,-1.8998,-1.9039,-1.9028,-1.9053,-1.9051,-1.9056,-1.8907,-1.8886,-1.9061,-1.9061,-1.9061,-1.9061,-1.9061,-1.9061,-1.86,-1.8682,-1.8679,-1.8772,-1.8785,-1.8849,-1.8871,-1.8899,-1.8921,-1.8998,-1.9041,-1.9048,-1.907,-1.9123,-1.9171,-1.9173,-1.9195,-1.9226,-1.9224,-1.9085,-1.9066,-1.9048,-1.9028,-1.923,-1.9231,-1.9369,-1.937,-1.9371]},{"header":{"parameterUnit":"m.s-1","parameterCategory":1,"la1":30.2991,"la2":30.254,"lo1":-89.0895,"lo2":-89.0444,"dy":0.0017,"dx":0.0017,"nx":28,"ny":28,"refTime":"2024-06-11T03:00:00:Z","depth":0,"parameterNumber":3,"parameterNumberName":"V-component_of_WINDS"},"data":[0,0,0,0,0,0,0,0,0,0,0,0,0,0,0,0,0,0,0,0,0,0,0,0,0,0,0,0,0,0,0,0,0,0,0,0,0,0,0,0,0,0,0,0,0,0,0,0,0,0,0,0,0,0,0,0,0,0,1.3441,1.344,0,1.3359,1.3358,1.3357,1.3328,1.3328,1.3328,1.3329,1.3239,1.3236,1.3233,0,0,0,0,0,0,0,0,0,0,0,0,0,1.3568,1.3566,1.3441,1.344,1.3439,1.3359,1.3358,1.3356,1.3328,1.3328,1.3328,1.3329,1.3239,1.3236,1.3233,0,0,0,0,0,0,0,0,0,0,0,0,0,1.3502,1.3566,1.3441,1.3415,1.3412,1.3359,1.3358,1.3356,1.3328,1.3328,1.3329,1.3329,1.324,1.3237,1.3233,1.3198,0,0,1.322,1.3218,0,0,0,0,0,0,0,0,1.3506,1.3498,1.342,1.3417,1.3413,1.3354,1.337,1.3303,1.3327,1.3359,1.3329,1.3329,1.3276,1.3269,1.3253,1.3194,1.319,1.322,1.3217,1.3216,1.3214,0,0,0,0,0,0,0,1.3511,1.3501,1.3408,1.3419,1.3414,1.3406,1.3397,1.3357,1.3316,1.3357,1.3354,1.3345,1.3274,1.3257,1.325,1.3189,1.322,1.3216,1.3214,1.3212,1.3097,1.3097,0,0,0,0,0,0,1.352,1.3505,1.3411,1.3406,1.3462,1.3403,1.3393,1.3372,1.3316,1.3308,1.3345,1.3344,1.3263,1.3255,1.3247,1.3202,1.3216,1.3212,1.321,1.3098,1.3097,1.3096,0,0,0,0,0,0,1.3523,1.3512,1.3414,1.3455,1.3442,1.3401,1.3377,1.337,1.3353,1.3308,1.33,1.3335,1.3263,1.3253,1.3211,1.3199,1.321,1.3206,1.3098,1.3098,1.3097,1.3113,0,0,0,0,0,0,1.3527,1.3513,1.3501,1.3455,1.344,1.3381,1.3377,1.3369,1.3346,1.3345,1.3296,1.3288,1.3263,1.3217,1.3207,1.3193,1.3203,1.3099,1.3098,1.3097,1.3113,1.3113,1.3113,0,0,0,0,0,1.3532,1.3507,1.35,1.3489,1.3423,1.338,1.3371,1.3344,1.3346,1.3332,1.3303,1.3289,1.3203,1.3213,1.3201,1.3186,1.31,1.3098,1.3097,1.3114,1.3113,1.3113,0,0,0,0,0,0,1.355,1.3501,1.3492,1.3453,1.3421,1.3375,1.3357,1.3345,1.331,1.331,1.3277,1.3266,1.3226,1.3202,1.3215,1.315,1.315,1.3146,1.3167,1.3166,1.3165,1.3171,1.32,0,0,0,0,0,1.3551,1.3521,1.3479,1.3448,1.3433,1.3398,1.3378,1.3361,1.3326,1.3311,1.3279,1.3245,1.3209,1.3187,1.3152,1.3111,1.3099,1.3095,1.3094,1.3094,1.3091,1.3067,1.3064,1.3092,1.3092,1.3092,0,0,1.3549,1.3518,1.3501,1.3451,1.3424,1.3393,1.3387,1.3354,1.333,1.3306,1.3265,1.324,1.3199,1.3158,1.3138,1.3136,1.3081,1.3092,1.3093,1.3089,1.3065,1.3062,1.306,1.3091,1.3091,1.3091,0,0,1.3531,1.3505,1.3477,1.3451,1.3412,1.3389,1.3383,1.3339,1.3323,1.3282,1.3263,1.3234,1.3174,1.3145,1.3123,1.3096,1.3082,1.3086,1.3082,1.3059,1.3057,1.3055,1.3044,1.3041,1.3083,1.3083,1.3083,0,1.3533,1.3487,1.3463,1.3432,1.341,1.339,1.336,1.3335,1.3286,1.327,1.3271,1.3196,1.3167,1.3118,1.3112,1.3095,1.3085,1.309,1.306,1.3057,1.3055,1.3044,1.3041,1.3083,1.3083,1.3083,1.3083,0,1.3492,1.3461,1.3442,1.3398,1.3374,1.3343,1.3313,1.3292,1.3277,1.3254,1.3212,1.3177,1.3135,1.3123,1.3107,1.3072,1.3072,1.3067,1.3066,1.3054,1.3043,1.3039,1.3084,1.3084,1.3084,1.3084,0,0,1.348,1.3425,1.3418,1.3398,1.3355,1.3329,1.3298,1.3259,1.3241,1.3208,1.318,1.3131,1.3126,1.3101,1.3082,1.3062,1.3043,1.3059,1.3057,1.3056,1.3001,1.3004,1.3,1.3034,1.3033,1.3033,1.3004,0,1.3455,1.34,1.3378,1.3332,1.3303,1.3284,1.3257,1.3227,1.3205,1.3175,1.3151,1.3116,1.3113,1.3098,1.3078,1.3049,1.3031,1.3051,1.3005,1.3004,1.3015,1.2994,1.2997,1.2972,1.3,1.2999,1.2998,0,1.3417,1.3387,1.3339,1.33,1.3287,1.3263,1.3226,1.3199,1.3164,1.3149,1.3123,1.3106,1.3071,1.3075,1.3025,1.304,1.302,1.3004,1.3002,1.2995,1.2999,1.2985,1.2963,1.2958,1.2992,1.2992,1.2993,0,1.3412,1.3359,1.3324,1.3307,1.3261,1.3245,1.3224,1.3191,1.3169,1.3136,1.3121,1.3085,1.3064,1.3035,1.3008,1.3013,1.2961,1.2962,1.2946,1.2947,1.2934,1.2935,1.2907,1.2925,1.2925,1.2925,1.2925,0,1.3384,1.3355,1.3321,1.3299,1.3266,1.3241,1.3209,1.3187,1.3157,1.313,1.3111,1.3086,1.3053,1.3022,1.3001,1.2963,1.2954,1.294,1.2934,1.294,1.2942,1.2925,1.2925,1.2924,1.2924,1.2924,1.2924,0,1.3371,1.3347,1.3307,1.3269,1.3258,1.3235,1.3201,1.3178,1.3158,1.3123,1.3113,1.3079,1.3042,1.3014,1.2965,1.2951,1.2911,1.2905,1.2923,1.292,1.2905,1.2906,1.2863,1.2856,1.2881,1.2881,1.288,0,1.3354,1.3332,1.3292,1.3273,1.3254,1.3224,1.3203,1.3178,1.3156,1.3116,1.3098,1.3061,1.303,1.2972,1.2942,1.2905,1.2897,1.2885,1.2891,1.2898,1.2895,1.2896,1.2893,1.2883,1.2883,1.2883,1.2883,0,1.3326,1.3316,1.3287,1.3254,1.323,1.3202,1.3173,1.3159,1.3129,1.3105,1.3069,1.3045,1.2998,1.296,1.2921,1.2898,1.2885,1.2882,1.2876,1.288,1.2891,1.2884,1.2919,1.2882,1.2882,1.2882,1.2882,1.2882,1.3309,1.3289,1.3258,1.3226,1.3203,1.3178,1.3155,1.3132,1.3102,1.3063,1.305,1.3013,1.2979,1.2925,1.2902,1.2872,1.287,1.2862,1.286,1.2857,1.2857,1.2899,1.2864,1.2864,1.2864,1.2864,1.2864,0,1.3279,1.3259,1.323,1.3192,1.3168,1.3161,1.313,1.3109,1.3077,1.3048,1.3019,1.2977,1.2942,1.291,1.2873,1.2854,1.2847,1.2845,1.2844,1.2839,1.2861,1.2869,1.2851,1.2851,1.2851,1.2851,1.2851,1.2851,1.326,1.3225,1.3211,1.3164,1.3144,1.3109,1.3092,1.3068,1.3045,1.3,1.2972,1.2953,1.2922,1.2883,1.2849,1.2841,1.2827,1.2826,1.2816,1.2836,1.2838,1.2839,1.2847,1.2824,1.2824,1.2796,1.2796,1.2796]}]]